Wind_Speed
32 30 29 27 24 23 22 21 20 21 21 20 18 17 16 16 16 15 15 15 14 14
32 31 30 28 27 25 23 21 20 21 22 21 20 19 18 18 17 16 16 16 15 16
32 31 31 27 27 26 25 24 22 23 22 22 21 21 20 19 18 18 17 17 16 16
29 30 30 29 29 28 25 25 26 25 24 24 24 23 23 22 20 19 19 18 18 18
25 26 28 29 28 27 27 27 27 27 26 25 25 25 25 24 22 22 21 20 20 19
22 24 26 27 27 27 27 27 26 26 26 26 27 26 27 26 24 23 22 21 21 20
20 22 24 24 25 27 28 28 28 28 28 28 27 27 27 26 26 25 24 23 22 21
16 18 20 22 23 24 26 28 28 27 28 27 28 29 29 28 28 26 25 24 24 24
14 16 18 18 20 21 24 26 26 28 29 29 31 31 32 30 28 27 26 25 25 24
12 14 17 17 19 22 23 24 27 28 29 31 31 31 32 34 31 26 27 26 25 23
11 12 13 16 18 20 21 24 25 27 29 29 30 31 32 32 33 30 28 26 27 25
11 12 15 18 20 21 21 24 25 26 27 29 30 30 32 32 31 30 29 28 27 26
10 12 15 17 19 20 21 24 23 25 26 27 29 29 31 33 31 28 28 28 28 29
10 12 13 15 17 17 19 20 21 23 24 25 27 28 29 32 33 30 27 26 26 28
Wind_Direction
219 219 221 220 218 219 219 220 219 221 220 222 225 228 230 234 239 243 245 248 250 256
220 219 219 220 220 220 220 220 220 219 218 220 223 225 227 231 236 240 244 249 249 250
222 222 222 221 219 219 219 218 217 216 217 219 220 223 223 229 234 239 243 247 249 251
227 226 226 224 222 220 219 217 216 216 218 219 219 219 222 225 229 233 237 241 245 251
232 229 229 228 226 223 222 220 218 216 217 219 220 220 221 225 226 230 237 238 241 246
233 232 231 230 228 227 226 225 223 221 219 220 221 220 222 223 228 229 231 237 240 241
231 231 233 233 229 227 225 224 224 223 222 223 222 224 224 224 225 229 232 232 235 240
233 233 229 233 233 233 229 228 228 227 225 224 223 223 223 223 225 225 230 231 229 233
224 228 232 232 236 236 235 232 233 232 229 225 224 225 225 222 222 224 226 228 231 232
227 230 231 225 229 233 234 236 235 235 235 232 230 229 227 225 223 224 226 226 227 230
232 232 235 239 237 237 235 236 239 239 237 238 238 233 231 226 225 225 230 230 227 225
227 237 235 235 238 239 238 237 235 236 238 237 238 237 234 226 225 228 228 229 230 227
241 233 241 248 248 246 241 245 245 243 238 237 241 240 236 228 225 228 228 227 229 227
254 263 265 263 257 254 254 254 253 251 247 243 239 239 237 232 224 228 227 224 224 223
Height
825 828 831 833 835 837 839 840 843 845 846 848 850 851 853 854 855 855 855 855 855 855
819 821 821 824 827 830 832 835 838 839 840 842 844 845 847 848 849 851 851 851 851 851
810 812 815 818 820 822 824 828 830 833 835 836 837 839 841 842 844 845 846 847 848 847
803 806 810 811 813 815 818 819 822 825 827 829 830 831 834 834 836 838 839 841 842 842
800 801 804 806 809 811 811 813 814 816 818 821 823 825 826 828 829 831 833 834 835 836
793 796 796 798 802 805 806 808 810 812 812 814 816 817 819 820 823 824 824 827 829 829
786 788 791 793 794 795 797 799 800 802 804 806 808 811 812 813 814 816 818 818 820 822
781 784 785 788 789 791 791 792 794 796 797 798 800 801 803 805 807 808 810 811 811 812
775 778 781 782 784 786 786 787 789 789 789 789 789 791 793 797 799 801 802 803 804 805
772 773 774 773 776 777 779 781 780 781 784 782 782 785 786 788 791 793 794 795 797 799
771 770 771 773 771 771 771 772 773 773 774 776 777 777 778 781 783 783 787 789 789 790
766 768 767 766 765 765 765 764 762 763 764 765 766 769 772 774 775 777 776 779 783 785
763 760 762 762 761 760 759 758 758 755 754 754 757 760 762 765 768 769 769 770 773 775
758 760 759 758 757 756 756 756 754 753 751 748 747 749 753 756 758 760 760 759 762 764